This demonstration page uses our WeatherBlox Daily Observations layout. Learn more.

Left ArrowRight Arrow

41.86663, -103.66717

Hourly Observations for March 16, 2020

Temp ( °F °C ) Dew Point ( °F °C ) Humidity (%) Winds ( mph kmh ) Pressure ( in mb ) Visibility ( mi km ) Precip ( " mm )
12:12 am 00:12 Mostly Cloudy with Fog 33 0.6 33 0.6 100 100 E 8 13 30.14 1021 0 0 N/A
12:39 am 00:39 Mostly Cloudy with Fog 32 undefined 32 undefined 100 100 E 7 11 30.15 1021 1 1 N/A
12:53 am 00:53 Mostly Cloudy with Fog 32 undefined 32 undefined 100 100 E 7 11 30.07 1018 1 1 N/A
1:11 am 01:11 Mostly Cloudy with Fog 33 0.6 33 0.6 100 100 E 9 15 30.14 1021 1 1 N/A
1:22 am 01:22 Cloudy with Mist and Fog 32 undefined 32 undefined 100 100 ENE 7 11 30.15 1021 1 2 N/A
1:37 am 01:37 Cloudy with Mist and Fog 32 undefined 32 undefined 100 100 ENE 6 9 30.16 1021 3 5 N/A
1:42 am 01:42 Cloudy with Mist and Fog 32 undefined 32 undefined 100 100 ENE 5 7 30.16 1021 2 3 N/A
1:53 am 01:53 Mostly Cloudy with Mist and Fog 32 undefined 32 undefined 100 100 NNE 7 11 30.09 1019 2 3 N/A
1:56 am 01:56 Mostly Cloudy with Mist and Fog 32 undefined 32 undefined 100 100 NE 7 11 30.16 1021 3 5 N/A
2:10 am 02:10 Mostly Cloudy 34 1 32 undefined 93 93 NNE 8 13 30.16 1021 10 16 N/A
2:43 am 02:43 Cloudy with Mist and Fog 33 0.6 33 0.6 100 100 NNE 9 15 30.17 1022 2 3 N/A
2:53 am 02:53 Cloudy with Mist and Fog 33 0.6 33 0.6 100 100 NNE 9 15 30.10 1019 1 1 N/A
3:13 am 03:13 Cloudy with Mist and Fog 34 1.1 34 1.1 100 100 NNE 8 13 30.17 1022 2 2 N/A
3:21 am 03:21 Cloudy with Mist and Fog 34 1.1 34 1.1 100 100 NNE 8 13 30.17 1022 3 4 N/A
3:28 am 03:28 Cloudy with Mist and Fog 34 1 34 1 100 100 NNE 9 15 30.18 1022 3 5 N/A
3:46 am 03:46 Cloudy 34 1 34 1 100 100 NNE 8 13 30.17 1022 9 14 N/A
3:53 am 03:53 Cloudy 34 1.1 34 1.1 100 100 NNE 8 13 30.10 1019 8 13 N/A
4:06 am 04:06 Cloudy 34 1 34 1 100 100 N 8 13 30.18 1022 10 16 N/A
4:24 am 04:24 Cloudy 35 1.7 34 1.1 96 96 NNE 6 9 30.17 1022 10 16 N/A
4:53 am 04:53 Cloudy 35 1.7 35 1.7 100 100 NNE 6 9 30.11 1020 10 16 N/A
5:53 am 05:53 Cloudy 36 2.2 34 1.1 93 93 N 6 9 30.13 1020 10 16 N/A
6:53 am 06:53 Cloudy 34 1.1 33 0.6 97 97 N 9 15 30.17 1022 10 16 N/A
7:53 am 07:53 Cloudy 33 0.6 31 -0.6 92 92 NNE 8 13 30.20 1023 10 16 N/A
8:53 am 08:53 Cloudy 34 1.1 32 undefined 92 92 N 6 9 30.22 1024 10 16 N/A
9:02 am 09:02 Cloudy 34 1.1 31 -0.6 89 89 NNE 7 11 30.27 1025 10 16 N/A
9:53 am 09:53 Cloudy 34 1.1 31 -0.6 89 89 NNE 7 11 30.24 1024 10 16 N/A
10:53 am 10:53 Cloudy 36 2.2 32 undefined 86 86 ENE 7 11 30.25 1024 10 16 N/A
11:53 am 11:53 Cloudy 37 2.8 32 undefined 82 82 E 6 9 30.24 1024 10 16 N/A
12:53 pm 12:53 Cloudy 38 3.3 32 undefined 79 79 E 6 9 30.23 1024 10 16 N/A
1:53 pm 13:53 Cloudy 38 3.3 31 -0.6 76 76 E 3 6 30.23 1024 10 16 N/A
2:00 pm 14:00 Cloudy 38 3.3 32 undefined 79 79 SSE 6 9 30.23 1024 10 16 N/A
2:53 pm 14:53 Cloudy 38 3.3 32 undefined 79 79 E 13 20 30.20 1023 10 16 N/A
3:01 pm 15:01 Cloudy 37 2.8 32 undefined 82 82 undefined N/A 30.22 1023 10 16 N/A
3:53 pm 15:53 Cloudy 38 3.3 32 undefined 79 79 NE 8 13 30.20 1023 10 16 N/A
4:53 pm 16:53 Cloudy 36 2.2 31 -0.6 82 82 NE 10 17 30.21 1023 10 16 N/A
5:53 pm 17:53 Cloudy 35 1.7 30 -1.1 82 82 NE 12 19 30.23 1024 10 16 N/A
6:38 pm 18:38 Cloudy 34 1.1 30 -1.1 85 85 ENE 7 11 30.30 1026 10 16 N/A
6:53 pm 18:53 Cloudy 34 1.1 30 -1.1 85 85 ENE 8 13 30.27 1025 10 16 N/A
7:53 pm 19:53 Cloudy 34 1.1 31 -0.6 89 89 E 6 9 30.29 1026 10 16 N/A
8:26 pm 20:26 Cloudy 34 1 30 -1 87 87 ESE 6 9 30.34 1027 8 13 N/A
8:35 pm 20:35 Cloudy with Mist and Fog 33 0.6 31 -0.6 92 92 undefined N/A 30.34 1028 6 10 N/A
8:53 pm 20:53 Cloudy with Mist and Fog 33 0.6 31 -0.6 92 92 ESE 5 7 30.31 1026 5 8 N/A
9:10 pm 21:10 Cloudy with Mist and Fog 33 0.6 32 undefined 96 96 SSE 6 9 30.35 1028 5 8 N/A
9:17 pm 21:17 Cloudy with Mist and Fog 33 0.6 32 undefined 96 96 SE 7 11 30.34 1028 6 10 N/A
9:46 pm 21:46 Cloudy 32 undefined 32 undefined 100 100 undefined N/A 30.35 1028 7 11 N/A
9:53 pm 21:53 Cloudy 33 0.6 32 undefined 96 96 undefined N/A 30.30 1026 9 14 N/A
10:13 pm 22:13 Cloudy 32 undefined 32 undefined 100 100 SE 5 7 30.35 1028 8 13 N/A
10:24 pm 22:24 Cloudy 34 1 32 undefined 93 93 SE 5 7 30.34 1027 9 14 N/A
10:33 pm 22:33 Cloudy 32 undefined 31 -0.6 96 96 ESE 5 7 30.35 1028 10 16 N/A
10:53 pm 22:53 Cloudy 32 undefined 31 -0.6 96 96 SE 5 7 30.30 1026 10 16 N/A
11:04 pm 23:04 Cloudy 33 0.6 32 undefined 96 96 SE 6 9 30.33 1027 10 16 N/A
11:53 pm 23:53 Cloudy 33 0.6 32 undefined 96 96 E 5 7 30.27 1025 10 16 N/A

Powered by AerisWeather